View from above orbital plane
|
View from above satellite
|
Ground track
|
The orbit data is extracted from the following two-line orbital elements,
1 37841U 11058D 21023.86066707 .00000281 00000-0 88815-5 0 9992
2 37841 19.9724 94.9909 0011901 144.3824 12.6207 14.10683456479427
Epoch (UTC): | 23 January 2021 20:39:21 |
Eccentricity: | 0.0011901 |
inclination: | 19.9724° |
perigee height: | 848 km |
apogee height: | 865 km |
right ascension of ascending node: | 94.9909° |
argument of perigee: | 144.3824° |
revolutions per day: | 14.10683456 |
mean anomaly at epoch: | 12.6207° |
orbit number at epoch: | 47942 |
The dashed part of the orbit path shows where the satellite is in the earth's shadow,
|
|